Regional Weather Roundup
Issued by NWS

Home | Current Version | Previous Version | Graphics & Text | Print | Product List | Glossary On
Versions: 1 2 3 4 5 6 7 8 9 10 11 12 13 14 15 16 17 18 19 20 21 22 23 24 25 26 27 28 29 30 31 32 33 34 35 36 37 38 39 40 41 42 43 44 45 46 47 48 49 50
000
ASUS45 KCYS 251710
RWRWY

WYOMING REGIONAL WEATHER ROUNDUP
NATIONAL WEATHER SERVICE CHEYENNE WY
1000 AM MST SUN JAN 25 2015

NOTE:  "FAIR" INDICATES FEW OR NO CLOUDS BELOW 12,000 FEET
WITH NO SIGNIFICANT WEATHER AND/OR OBSTRUCTIONS TO VISIBILITY.

WYZ001-251800-
YELLOWSTONE NATIONAL PARK

CITY           SKY/WX    TMP DP  RH WIND       PRES   REMARKS
LK YELLOWSTONE   N/A     27  24  89 CALM      30.39R
W YELLOWSTONE  NOT AVBL

$$
WYZ002>013-054>058-071-098>099-251800-
NORTHERN WYOMING

CITY           SKY/WX    TMP DP  RH WIND       PRES   REMARKS
JACKSON        CLOUDY    27  25  93 CALM      30.39R
CODY           FAIR      52  27  37 W13G21    30.10R
GREYBULL       FAIR      23  20  88 CALM      30.16R
WORLAND        FAIR      20  17  88 W3        30.14S
SHERIDAN       FAIR      39  33  79 S7        30.04F WCI  34
BUFFALO        FAIR      40  31  70 SE5       30.05F
GILLETTE       CLOUDY    40  32  73 SW10      30.06S WCI  33
HULETT           N/A    N/A N/A N/A MISG        N/A
NEWCASTLE      FAIR      34  27  75 CALM      30.10S

$$
WYZ014>020-022>026-101>103-251800-
CENTRAL WYOMING

CITY           SKY/WX    TMP DP  RH WIND       PRES   REMARKS
BIG PINEY      FAIR      26  23  88 CALM      30.35R
PINEDALE       FAIR      34  28  80 W18       30.34R WCI  23
DUBOIS         PTSUNNY   37  27  65 W18G28    30.28R WCI  27
LANDER         FAIR      35  24  64 SE5       30.14F WCI  31
RIVERTON       FAIR      30  23  75 CALM      30.16S
CASPER         FAIR      41  26  55 SW20      30.15S
DOUGLAS        CLOUDY    38  28  67 SW3       30.15R

$$
WYZ021-027>030-104>119-251800-
SOUTHERN WYOMING

CITY           SKY/WX    TMP DP  RH WIND       PRES   REMARKS
EVANSTON       FAIR      33  30  88 SW9       30.44R WCI  25
KEMMERER       CLOUDY    32  32 100 W15       30.42R WCI  22
FORT BRIDGER   FAIR      35  32  90 W22       30.43R WCI  23
ROCK SPRINGS   FAIR      36  29  75 W26G33    30.33S WCI  24
DIXON          CLOUDY    34  26  74 CALM      30.39R
RAWLINS        FAIR      36  28  73 SW25G37   30.27R WCI  24
SARATOGA       FAIR      37  28  70 W18G25    30.30S WCI  27
LARAMIE        CLOUDY    38  26  62 W22G28    30.20R WCI  27
CHEYENNE       CLOUDY    44  26  49 NW17G26   30.14R
TORRINGTON     CLOUDY    39  30  70 W10       30.16R WCI  32
PINE BLUFFS    CLOUDY    41  32  70 NW10      30.16R

$$


USA.gov is the U.S. government's official web portal to all federal, state and local government web resources and services.